星链-11582 (STARLINK-11582)

导读

STARLINK-11582是美国(US)SpaceX星链计划中的一颗卫星,于2025年2月11日发射入轨,隶属于星链星座组网。星链计划旨在构建全球卫星互联网星座,为全球偏远、欠发达地区及海上、航空等场景提供高速低延迟的宽带网络服务,该卫星的发射进一步推进了星链星座的部署进程,扩充了星座的服务覆盖能力与网络容量。

基本信息
目录编号:
62985
目录名称:
STARLINK-11582
国际标识:
2025-031E
轨道中心:
EARTH
卫星名称:
星链-11582
卫星全名:
星链-11582 (STARLINK-11582)
卫星状态:
在轨 (已飞行488 天)
发射日期:
2025-02-11 UTC
国别 :
美国 (US)
星等 :
--
轨道信息
数据来源 国际轨道数据
星历时间: 2026-06-14T13:15:18+0800
11小时前
查看轨道信息
半长轴: 6734.054km
偏心率: 0.0002425
轨道倾角: 43.001°
近地点辐角 268.989°
升交点赤经 139.636°
平近点角 91.070°
近地点: 354.283km
远地点: 357.551km
周期: 91.659分钟
每日圈数: 15.710423
详细信息
固有亮度:
5
最大亮度:
2.5
卫星平台:
Starlink V1.0
覆盖范围:
全球
运营商:
太空探索技术公司
运营商所在国:
美国
制造商(研发单位):
太空探索技术公司
制造商所在国:
美国
使用方式:
暂无
卫星简介
Starlink 计划是 SpaceX 推出的全球卫星互联网项目,通过发射低轨道卫星,为全球尤其是偏远地区提供高速、低延迟的互联网服务。自 2019 年起,Starlink 已部署数千颗卫星,旨在缩小全球数字鸿沟,推动互联网普及。该项目还为军事、航空等行业提供通信支持,带来广泛经济效益。
2D轨道图
3D轨道图
轨道高度分析图
轨道倾角分析图
轨道综合分析图
查看轨道综合分析图